Theta_e
316 315 316 315 315 316 316 316 316 316 315 314 312 311 309 306 305 311 315 316 317 317 321 328 335 343 350 352 352 354 365 365 355 355 354 352 356 352 349 349 347 346 346 344 342
315 316 316 314 315 315 315 316 315 315 315 314 311 309 308 306 315 316 318 317 314 314 330 334 335 339 350 354 352 359 362 363 353 356 358 354 354 354 349 348 348 347 344 342 343
316 315 316 315 315 315 315 316 315 315 314 313 309 307 307 310 323 322 320 317 313 312 327 333 331 339 352 354 353 355 360 355 353 356 352 354 354 352 352 349 348 349 345 344 342
313 314 314 315 314 314 315 315 314 314 314 311 308 307 306 317 330 328 316 315 313 311 327 331 331 338 350 350 349 355 357 352 354 353 353 355 352 351 349 348 347 346 345 343 343
310 313 315 315 314 313 313 314 313 313 312 311 310 307 316 323 321 327 322 318 312 315 326 331 330 331 342 348 352 353 352 350 353 354 352 353 355 352 349 347 346 345 344 343 343
309 312 314 313 312 311 311 312 311 311 311 311 311 308 318 325 320 325 322 319 314 318 327 331 331 330 331 347 353 352 352 354 355 354 354 354 348 348 346 345 345 344 344 342 342
309 311 312 310 310 310 311 310 310 310 311 312 311 316 321 323 318 326 320 315 317 321 329 329 329 329 332 348 348 351 356 358 356 354 354 351 352 348 346 345 345 344 343 342 342
309 310 311 312 310 310 312 311 308 308 306 305 307 319 325 319 321 326 323 319 318 323 326 326 327 328 329 341 347 350 355 364 358 357 354 352 359 346 344 348 344 343 342 342 342
309 310 311 312 312 310 313 313 310 305 304 307 317 321 326 315 319 328 325 325 323 324 325 326 326 328 334 345 349 348 362 361 365 357 356 357 359 348 346 345 346 344 343 343 343
309 310 310 311 312 312 313 316 321 310 311 319 320 325 323 319 322 326 324 324 324 324 326 324 325 328 337 346 350 353 352 358 364 360 358 357 358 345 344 345 349 345 344 345 345
309 310 310 311 311 312 314 323 328 328 327 326 323 325 322 320 324 324 323 324 322 322 322 323 324 328 340 344 344 349 349 352 361 356 360 360 358 351 347 349 353 349 344 346 345
309 310 311 311 311 311 313 323 322 322 323 326 323 321 324 324 323 321 320 321 321 320 322 323 323 327 337 342 343 344 345 352 354 354 358 360 360 352 352 354 355 355 354 352 348
310 310 311 312 312 312 318 323 321 321 326 326 321 322 324 325 323 323 321 319 319 320 322 324 323 325 332 339 342 343 343 355 351 354 358 360 363 361 353 354 353 351 347 346 352
310 311 312 313 316 321 324 323 321 322 327 322 321 323 323 324 325 323 321 323 322 320 322 324 325 325 329 336 343 340 343 355 352 358 371 356 372 363 358 353 354 351 344 347 351
312 313 314 314 315 320 322 321 321 323 335 323 323 324 325 324 325 324 322 323 322 322 322 324 325 327 329 334 338 338 339 344 345 353 360 362 367 364 360 358 353 349 348 346 350
314 316 316 317 316 316 320 321 323 332 335 325 325 325 326 323 325 324 322 322 322 321 322 324 326 327 332 334 335 336 338 341 344 353 366 359 360 359 367 362 358 351 347 345 349
316 318 318 315 322 321 321 324 331 335 327 324 325 326 325 326 327 324 322 322 325 321 323 325 329 329 330 331 332 333 336 340 341 352 352 346 351 358 357 358 360 355 353 347 349
318 319 317 313 318 320 322 327 337 331 326 325 325 325 328 327 327 324 322 325 326 323 326 327 330 329 329 329 331 332 334 338 349 344 344 343 354 357 356 348 354 357 354 349 350
319 320 318 320 316 320 325 336 331 327 323 322 327 329 329 329 327 324 326 325 325 326 326 326 328 328 329 328 330 331 330 331 334 341 342 345 350 356 348 346 354 358 356 351 351
319 323 320 320 320 321 327 328 328 324 324 326 331 329 329 328 329 328 326 326 325 325 326 328 331 328 327 327 326 327 329 330 331 339 344 344 349 354 357 354 356 358 355 354 351
318 325 321 321 322 325 331 324 323 323 324 326 327 327 328 328 326 329 329 328 326 325 325 328 328 328 327 326 325 325 326 329 331 332 338 350 356 352 351 348 349 351 356 355 351
324 329 322 323 327 329 329 323 317 323 323 324 326 327 328 328 329 329 329 328 326 327 325 326 327 332 331 327 325 326 325 326 332 334 333 334 337 348 344 344 347 349 353 356 353
327 323 323 324 329 326 323 322 321 322 323 324 323 324 326 327 331 331 330 326 325 326 328 328 327 330 333 332 327 325 327 327 325 330 337 333 351 348 340 340 349 350 354 358 357
328 321 325 326 327 326 322 321 319 318 321 323 323 323 323 324 330 330 329 324 324 325 333 328 328 333 337 336 334 333 328 329 327 327 326 330 347 348 350 349 350 352 360 358 358
327 326 323 324 325 324 323 320 319 320 321 322 322 324 326 329 328 329 328 326 323 323 323 325 328 329 329 331 332 333 330 327 327 329 331 334 333 336 352 345 337 353 360 359 359
333 332 325 327 326 324 318 321 318 320 321 321 322 321 322 328 329 328 325 327 326 325 323 325 326 326 327 328 328 328 329 330 328 327 327 328 329 348 342 339 336 338 357 357 356
330 330 328 321 325 324 324 321 320 321 320 319 319 319 321 322 320 321 322 322 326 326 326 324 325 326 326 326 326 328 328 327 328 328 331 341 345 347 340 337 333 342 352 357 355
Wind_Speed
12 10 12 11 10 10 10 10 9 10 11 12 12 12 11 11 10 8 11 7 15 10 8 11 15 15 13 10 10 10 1 4 14 15 11 17 19 12 11 15 11 14 24 22 22
12 13 12 10 10 9 10 10 10 10 11 11 11 11 10 10 11 20 17 16 9 9 13 15 14 13 12 12 10 7 3 9 6 5 7 8 7 16 9 12 17 17 24 24 23
12 12 12 12 11 9 9 10 10 10 11 11 10 10 8 8 10 4 21 23 15 13 17 16 15 16 17 18 15 6 7 13 15 19 18 12 5 16 13 13 21 22 19 17 19
13 12 11 11 10 9 9 9 10 11 11 10 9 8 6 6 2 5 12 19 14 13 16 19 16 14 16 12 3 3 15 10 5 11 16 7 11 13 11 18 22 20 19 17 17
15 13 12 12 11 9 8 9 9 10 10 10 7 5 3 8 9 3 9 13 14 15 19 16 15 13 16 4 8 10 15 11 13 13 7 16 13 11 5 20 22 20 17 16 16
15 16 13 12 10 9 8 8 9 9 9 8 6 2 6 11 4 5 8 13 15 18 19 18 12 14 14 3 5 11 14 14 16 14 11 16 5 2 1 18 20 19 18 16 15
16 17 15 12 10 9 8 8 7 7 7 7 5 4 10 14 3 4 9 14 17 20 16 16 18 12 11 5 11 9 14 12 16 14 7 12 4 2 8 11 19 18 16 15 14
15 16 16 14 10 9 8 8 7 4 3 1 3 5 8 1 11 10 11 16 16 18 17 15 17 12 16 6 15 12 8 8 10 15 12 10 7 6 7 3 17 18 16 15 13
13 14 15 14 11 9 7 6 6 1 2 4 4 8 13 4 13 14 14 16 16 18 17 7 9 12 17 12 15 12 11 10 12 12 15 9 11 14 10 7 10 14 15 14 14
13 14 14 14 12 9 7 6 4 2 2 7 14 9 10 11 16 13 15 14 13 10 9 7 6 12 14 13 11 13 14 7 14 15 16 13 10 15 6 7 13 15 14 12 15
15 15 16 15 13 10 6 5 5 6 13 10 7 12 7 12 12 12 14 14 14 12 14 16 11 14 18 18 10 10 4 7 7 11 17 13 14 18 17 14 14 8 11 6 13
15 16 16 17 17 13 7 7 11 11 14 18 14 9 4 11 10 12 15 13 14 15 16 11 16 19 21 16 6 10 17 5 9 13 10 15 14 17 17 10 7 4 5 9 6
14 16 17 18 18 10 12 17 12 12 9 11 9 12 7 10 14 14 16 17 14 16 17 17 17 19 19 15 10 19 16 9 5 12 23 16 10 13 15 7 10 4 4 9 10
16 16 17 17 10 11 19 8 7 9 7 8 9 11 7 9 10 18 19 14 9 16 18 17 16 20 19 13 14 13 4 20 19 4 2 14 6 11 12 15 19 15 19 17 15
18 18 16 12 15 12 11 5 9 9 6 10 8 6 9 15 11 14 16 16 13 13 15 15 15 14 19 16 11 13 6 7 14 4 6 15 5 6 12 17 23 22 25 23 15
22 19 16 7 8 15 13 11 10 6 4 7 7 9 13 16 11 16 13 16 13 14 16 16 14 11 9 6 15 2 7 13 11 4 5 24 9 6 11 26 20 21 23 25 19
22 20 16 11 9 11 8 8 4 5 7 5 8 12 16 15 11 12 15 14 13 11 13 17 8 9 10 17 16 6 8 6 5 9 11 14 11 8 27 22 25 24 23 23 20
21 16 10 18 10 13 9 2 3 10 6 4 10 9 4 12 13 12 14 13 18 17 11 13 9 12 9 14 12 10 14 10 10 2 10 16 10 12 30 20 19 25 24 23 23
13 9 8 12 10 9 8 2 4 11 3 2 14 7 4 16 3 13 15 16 14 14 10 13 15 18 14 14 14 13 13 20 23 11 12 2 3 18 9 16 17 21 20 22 23
7 15 10 9 11 10 9 8 7 7 7 15 17 14 6 3 10 18 14 11 5 11 9 5 14 18 17 14 15 16 11 10 11 8 11 4 8 3 3 14 8 24 22 22 20
5 6 9 9 8 7 9 2 5 5 9 6 4 4 4 7 4 6 9 3 1 6 8 13 9 2 11 13 13 11 14 11 12 11 10 4 6 8 10 6 14 16 23 20 23
10 8 13 10 7 6 8 4 6 5 4 3 6 7 3 5 8 3 7 10 3 3 6 14 14 12 15 13 13 15 15 16 9 10 11 12 6 19 18 13 10 31 15 22 21
5 4 11 9 8 5 3 7 10 13 4 7 3 4 11 8 5 10 12 5 2 4 8 11 7 8 2 12 15 12 11 12 17 14 13 11 6 16 18 22 29 19 17 19 18
5 5 5 8 12 13 7 5 5 2 4 6 7 7 5 3 20 10 8 2 3 9 9 7 10 7 5 8 10 12 13 18 15 13 13 10 11 8 12 4 12 11 21 22 19
5 3 8 5 4 5 5 4 5 6 2 3 1 9 8 8 13 14 11 4 6 3 2 5 10 2 2 4 7 21 16 17 16 13 11 13 8 6 10 19 18 13 17 17 18
5 10 1 5 5 3 4 8 5 3 12 5 3 1 6 13 5 7 10 8 4 5 6 5 9 9 11 5 11 15 8 11 6 15 12 16 4 12 10 14 22 32 11 13 15
16 19 5 2 4 5 10 7 7 2 3 6 8 10 5 11 8 12 12 9 6 3 5 5 7 8 12 8 12 11 10 10 10 10 7 15 13 15 11 15 18 17 4 8 12
Wind_Direction
335 334 329 323 316 309 309 309 310 311 311 310 310 310 313 310 294 268 252 221 233 234 205 193 213 221 228 238 195 126 264 224 123 117 103 117 107 39 194 131 119 124 133 150 138
337 334 328 317 316 305 299 301 302 302 305 308 308 310 313 321 294 258 234 238 223 230 197 212 211 210 219 230 201 158 98 321 317 107 114 101 60 160 131 114 110 122 111 139 133
335 332 330 325 318 309 299 296 294 294 297 302 305 309 309 340 274 286 216 218 231 222 212 223 226 222 222 237 220 129 141 195 202 256 127 130 170 142 195 125 123 124 138 145 137
339 336 332 324 318 312 304 297 289 291 293 298 303 301 304 305 302 104 167 201 217 205 217 238 242 234 258 237 216 108 122 153 130 62 114 88 297 67 25 127 125 137 153 145 151
348 339 335 330 324 314 299 295 291 288 290 295 304 306 321 229 255 109 191 206 199 190 212 228 230 235 251 305 187 115 140 128 132 92 81 86 45 47 108 115 124 144 160 152 156
350 347 340 332 326 318 303 292 289 288 289 292 299 283 259 251 60 110 156 180 194 189 211 230 230 236 293 86 32 161 135 127 107 103 109 105 65 35 260 128 134 151 155 167 156
350 354 351 344 337 332 326 314 303 296 290 291 274 271 261 249 309 180 174 192 197 198 209 226 242 261 251 172 199 224 140 136 138 139 123 98 46 344 296 135 144 160 165 164 150
354 352 352 351 348 342 335 333 323 304 304 267 198 254 256 354 255 212 194 194 203 206 225 216 240 281 278 282 258 184 167 152 155 142 150 168 170 205 264 275 163 166 166 153 154
347 347 348 349 343 338 331 327 340 296 163 167 256 218 257 156 210 211 191 197 191 204 215 240 236 243 259 238 242 194 193 177 158 176 161 196 129 209 259 268 218 166 158 161 155
339 340 343 344 338 327 325 313 266 214 230 242 266 257 242 223 195 180 191 197 189 197 207 209 226 240 242 240 219 214 203 189 184 170 173 161 145 170 238 260 279 151 167 159 151
340 340 337 333 329 317 311 287 205 200 224 255 165 233 144 193 139 191 184 193 195 196 208 200 213 217 223 232 254 209 183 229 125 298 171 147 151 170 185 237 257 134 169 226 169
342 337 331 328 321 310 253 255 16 333 299 211 261 252 340 134 180 187 181 191 198 207 216 183 220 228 234 230 194 262 265 175 106 303 203 156 154 176 184 213 104 80 345 339 233
337 331 328 326 319 288 230 276 315 318 282 188 204 217 227 191 198 174 194 206 198 213 210 222 212 228 240 235 217 240 265 101 81 167 249 140 141 175 178 175 112 102 322 298 297
328 326 325 327 308 284 236 245 296 326 281 137 181 209 185 221 237 170 207 215 192 214 226 232 236 198 237 225 245 242 82 135 144 256 158 189 139 186 184 192 177 175 193 215 224
326 321 316 310 305 291 350 310 341 280 335 155 136 115 192 219 145 163 200 233 247 219 230 219 238 205 226 218 235 255 180 126 105 9 45 214 91 179 184 219 206 187 203 216 209
325 314 306 291 248 262 304 317 286 7 235 163 145 200 206 216 184 150 189 239 247 231 233 241 225 211 246 229 242 255 223 178 114 93 285 251 158 173 199 222 205 202 208 203 198
322 304 286 268 248 327 324 290 283 202 235 158 180 184 192 195 181 165 196 211 220 207 208 234 228 164 245 234 224 244 243 230 233 188 235 147 190 140 208 206 197 196 201 200 194
318 294 273 253 259 275 266 308 324 289 107 213 187 174 41 279 156 169 195 207 237 214 179 218 188 241 194 251 218 195 244 247 213 301 323 327 350 160 186 199 186 184 200 194 177
315 269 240 252 217 240 259 149 205 286 47 148 68 43 153 259 28 182 200 216 212 216 251 217 244 177 194 231 247 216 223 256 280 37 278 164 183 164 179 212 192 180 189 191 184
308 248 216 187 180 224 258 266 218 26 354 8 91 259 244 26 164 248 192 208 175 244 320 248 286 170 201 197 230 257 276 235 246 241 259 283 174 237 171 352 198 176 192 189 182
250 242 134 179 193 239 249 126 93 71 342 42 342 301 339 280 281 107 288 42 309 190 282 294 290 139 179 200 230 215 248 266 288 257 247 139 214 131 101 164 279 282 187 182 182
277 271 156 181 228 228 283 56 298 109 243 191 104 78 258 305 316 141 359 8 128 80 226 256 305 179 243 216 223 254 220 240 254 259 274 292 315 127 106 87 1 277 175 170 180
274 114 160 205 269 207 138 76 7 359 2 356 29 91 179 178 39 80 316 324 301 343 30 346 266 255 16 295 201 232 267 247 242 262 271 278 123 171 166 166 203 209 152 160 162
278 148 175 219 259 264 171 133 108 333 19 356 333 316 292 303 142 178 177 184 238 33 356 307 294 107 229 302 316 307 248 266 244 224 251 268 134 105 49 43 359 154 150 155 160
249 240 204 226 211 22 41 72 83 133 131 299 313 322 57 345 341 106 155 330 206 109 299 300 294 316 15 220 304 279 288 233 254 275 292 88 32 347 79 50 12 308 141 156 154
286 335 102 297 339 212 155 91 129 66 7 101 69 256 343 112 322 347 339 148 314 171 218 223 277 297 271 262 239 264 295 312 268 239 273 288 345 104 111 78 50 308 94 142 148
356 332 283 204 219 219 290 128 101 164 69 13 2 306 70 38 358 329 319 325 129 232 322 249 277 295 284 289 271 242 287 266 276 284 8 38 10 52 100 133 141 218 278 132 137